Showing default

OPS 0100 (TRANSIT 15), 2754

Orbit data source: Space-Track

OPS 0100 (TRANSIT 15), 2754 is a payload satellite owned by USN NAVAIR (US) in LEO that was launched on Fri, 14 Apr 1967 UTC via an SCOUT A launch vehicle from the Air Force Western Test Range (AFWTR). Payload-class satellites include a variety of spacecraft equipped with specific instruments for various scientific and technological missions. These include communications satellites like Starlink; space stations such as the ISS; scientific satellites like the Hubble; Earth observation satellites from companies like Planet Labs, Umbra, and HawkEye 360; GPS; miniature CubeSats for education and research; and military/defense satellites.

Loading next visibility...
Identifier
2754, 1967-034A
Orbit
LEO
Last TLE update
5 hours ago
Origin
Manufacturer
APL
Mission
Defense Navigation
Bus & Motor
TRANSIT 5, Unknown motor
Mass
~50 kg wet, ~50 kg dry
Launch date (UTC)
1967-04-14 (58 years ago)
Launch vehicle
SCOUT A
Launch site
Air Force Western Test Range (AFWTR)
Object type
Payload
Rocket body
Debris
Shape & HBR
Oct Cyl + 4 Pan + 1 Rod, Unknown HBR
Radar Cross Section
7.565 m², Large (>1 m²)

Expand to show TLE details & history

TLE from 5 hours ago
0 OPS 0100 (TRANSIT 15)
1  2754U 67034A   25182.51985872  .00000079  00000-0  97878-4 0  9990
2  2754  90.2182  27.0269 0021578  92.1110 326.4243 13.57308476879153
Epoch: 2025-07-01T12:28Z
TLE epoch observation values (Epoch: 2025-07-01T12:28:35.793Z)
Latitude
58.4896°
Longitude
-80.29047°
Altitude
1,042.114 km
Speed
7.343 km/s
True Right ascension
01h 46m 41s
True Declination
58° 20' 31"
Sunlit
Object was in daylight at epoch
Visualization orbit readout
Latitude
48.9173°
Longitude
-80.18049°
Altitude
1,041.465 km
Speed
7.342 km/s
Apparent Right ascension
21h 34m 49s
Apparent Declination
18° 35' 25"
Sunlit
Object is in daylight
Visualization observer readout
Local Sidereal Time
05:23:53
Azimuth
301.838° NW
Elevation
-7.382°
Doppler factor
1
Orbital elements
Apogee altitude
1,058.541 km
Perigee altitude
1,026.517 km
Semi-major axis
7,420.666 km
Eccentricity
0.00216
Inclination
90.2182°
RAAN
27.0269°
Arg. of periapsis
92.111°
True anomaly
Unknown
Mean anomaly
326.4243°
Eccentric anomaly
Unknown
Mean motion
3.39531 °/min
Orbital period
106.03 mins
BSTAR
0.000097878
Loading maneuver chart data...
Loading SW <> Apogee altitude chart data...
Loading historical data...
Loading historical data...
Loading historical data...
Loading historical data...
Loading historical data...
Loading historical data...
Loading historical data...

OPS 0100 (TRANSIT 15) Visibility forecast

Observer location: undefined°, undefined°

Span
Click to sort rows by Start time (UTC) header in descending order
Start Az.
Max El. time (UTC)
Max El. Az.
Max El.
End time (UTC)
End Az.
11 mins2025-07-02 01:10:15.004Z21.975° NNE2025-07-02 01:15:15.004Z77.443° E30.004°2025-07-02 01:21:15.004Z149.024° SSE
9 mins2025-07-02 02:57:15.004Z336.572° NNW2025-07-02 03:01:15.004Z285.469° WNW29.644°2025-07-02 03:06:15.004Z223.844° SW
10 mins2025-07-02 13:05:15.004Z133.688° SE2025-07-02 13:10:15.004Z68.723° E28.976°2025-07-02 13:15:15.004Z16.69° NNE
10 mins2025-07-02 14:51:15.004Z217.483° SW2025-07-02 14:55:15.004Z269.122° W30.546°2025-07-02 15:01:15.004Z339.882° N
|